Hourly Data Report for January 27, 2004

TORONTO CITY
ONTARIO

43°40'00.000" N
79°24'00.000" W
112.50 m
6158355
71508
XTO

Download Data

Hourly Data (January 2004)
Hourly Data Report for January 27, 2004
TIME
LST
Temp Definition
°C
Dew Point Definition
°C
Rel Hum Definition
%
Precip. Amount Definition
mm

Wind Dir Definition
10's deg

Wind Spd Definition
km/h
Visibility Definition
km
Stn Press Definition
kPa
Hmdx Definition


Wind Chill Definition


Weather Definition


00:00 -7.5 -8.6 92   LegendMM LegendMM LegendMM 100.35     LegendNANA
01:00 -7.0 -7.9 93   LegendMM LegendMM LegendMM 100.24     LegendNANA
02:00 -6.8 -7.7 93   LegendMM LegendMM LegendMM 100.12     LegendNANA
03:00 -6.0 -6.7 95   LegendMM LegendMM LegendMM 100.09     LegendNANA
04:00 -5.8 -6.4 96   LegendMM LegendMM LegendMM 99.98     LegendNANA
05:00 -5.4 -5.9 96   LegendMM LegendMM LegendMM 99.85     LegendNANA
06:00 -4.2 -5.0 94   LegendMM LegendMM LegendMM 99.78     LegendNANA
07:00 -3.6 -4.6 93   LegendMM LegendMM LegendMM 99.73     LegendNANA
08:00 -3.2 -4.2 93   LegendMM LegendMM LegendMM 99.65     LegendNANA
09:00 -3.1 -4.2 92   LegendMM LegendMM LegendMM 99.54     LegendNANA
10:00 -4.9 -5.7 94   LegendMM LegendMM LegendMM 99.50     LegendNANA
11:00 -5.5 -6.3 94   LegendMM LegendMM LegendMM 99.40     LegendNANA
12:00 -5.6 -6.2 96   LegendMM LegendMM LegendMM 99.24     LegendNANA
13:00 -5.6 -6.2 96   LegendMM LegendMM LegendMM 99.08     LegendNANA
14:00 -5.7 -6.3 96   LegendMM LegendMM LegendMM 99.03     LegendNANA
15:00 -4.3 -4.7 97   LegendMM LegendMM LegendMM 98.93     LegendNANA
16:00 -3.3 -3.7 97   LegendMM LegendMM LegendMM 98.94     LegendNANA
17:00 -3.8 -4.2 97   LegendMM LegendMM LegendMM 98.91     LegendNANA
18:00 -3.7 -4.1 97   LegendMM LegendMM LegendMM 98.93     LegendNANA
19:00 -4.6 -5.2 96   LegendMM LegendMM LegendMM 98.98     LegendNANA
20:00 -4.3 -4.9 96   LegendMM LegendMM LegendMM 99.05     LegendNANA
21:00 -2.6 -3.8 91   LegendMM LegendMM LegendMM 99.04     LegendNANA
22:00 -2.4 -4.0 89   LegendMM LegendMM LegendMM 99.03     LegendNANA
23:00 -2.9 -5.0 85   LegendMM LegendMM LegendMM 98.98     LegendNANA

Notes on Data Quality.

Legend

  • E = Estimated
  • M = Missing
  • NA = Not Available*
  • [empty] = Indicates an unobserved value
Date modified: